Location: Wanzleben
(52.0609°N, 11.4408°E)
Time: 11:42:50
(UTC+00:00)

Cosmos 2263 Rocket - Pass Details

Date: 23 January 2021
Orbit: 825 x 847 km, 71.0° (Epoch: 24 February)

Event Time Altitude Azimuth Distance (km) Brightness Sun altitude
Rises 19:57:33 0° 298° (WNW) 3,407 6.3 -38.0°
Reaches altitude 10° 20:02:01 10° 331° (NNW) 2,468 5.1 -38.7°
Enters shadow 20:03:45 12° 349° (NNW) 2,355 4.8 -38.9°
